Location: Brede
(50.9167°N, 0.6000°E)
Time: 03:38:31
(UTC+00:00)

ATLAS CENTAUR R/B - Pass Details

Date: 08 August 2020
Orbit: 476 x 670 km, 64.7° (Epoch: 26 September)

Event Time Altitude Azimuth Distance (km) Brightness Sun altitude
Rises 03:29:54 0° 175° (S) 2,774 4.6 -9.3°
Reaches altitude 10° 03:32:50 10° 155° (SSE) 1,838 3.8 -9.0°
Maximum altitude 03:35:26 16° 115° (ESE) 1,439 3.8 -8.6°
Drops below altitude 10° 03:37:58 10° 75° (ENE) 1,775 5.1 -8.3°
Sets 03:40:42 0° 54° (NE) 2,632 7.4 -8.0°
